| time (UTC) | temp F | wind direction | speed MPH | gust MPH | rain 1hr in | rain 24hr in | rain mn in | humidity % | barometer mb |
| 20260904234258 | 79 | 284 | 0.0 | 0.0 | 0.00 | 0.58 | 0.08 | 79 | 1010.0 |
| 20260904233736 | 80 | 285 | 0.0 | 0.0 | 0.00 | 0.58 | 0.08 | 78 | 1010.1 |
| 20260904233238 | 80 | 285 | 0.0 | 0.0 | 0.00 | 0.58 | 0.08 | 77 | 1010.1 |
| 20260904232721 | 81 | 285 | 0.0 | 0.0 | 0.00 | 0.58 | 0.08 | 76 | 1010.0 |
| 20260904232152 | 81 | 285 | 0.0 | 0.0 | 0.00 | 0.58 | 0.08 | 74 | 1010.1 |
| 20260904231856 | 82 | 285 | 0.0 | 1.0 | 0.00 | 0.58 | 0.08 | 74 | 1010.3 |
| 20260904231101 | 82 | 285 | 0.0 | 1.0 | 0.00 | 0.58 | 0.08 | 73 | 1010.1 |
| 20260904230558 | 82 | 285 | 0.0 | 1.0 | 0.00 | 0.58 | 0.08 | 71 | 1010.3 |
| 20260904230106 | 82 | 285 | 0.0 | 1.0 | 0.00 | 0.58 | 0.08 | 71 | 1010.4 |
| 20260904225553 | 83 | 283 | 0.0 | 1.0 | 0.00 | 0.58 | 0.08 | 70 | 1010.5 |
| 20260904225049 | 83 | 280 | 0.0 | 1.0 | 0.00 | 0.58 | 0.08 | 70 | 1010.5 |
| 20260904224551 | 83 | 280 | 0.0 | 0.0 | 0.00 | 0.58 | 0.08 | 70 | 1010.6 |
| 20260904224024 | 83 | 315 | 0.0 | 0.0 | 0.00 | 0.58 | 0.08 | 71 | 1010.6 |
| 20260904223520 | 83 | 315 | 0.0 | 0.0 | 0.00 | 0.58 | 0.08 | 72 | 1010.6 |
| 20260904223018 | 83 | 315 | 0.0 | 0.0 | 0.00 | 0.58 | 0.08 | 71 | 1010.5 |
| 20260904222452 | 83 | 315 | 0.0 | 0.0 | 0.00 | 0.58 | 0.08 | 70 | 1010.4 |
| 20260904221924 | 84 | 289 | 0.0 | 0.0 | 0.00 | 0.58 | 0.08 | 69 | 1010.4 |
| 20260904221628 | 84 | 304 | 0.0 | 0.0 | 0.00 | 0.58 | 0.08 | 66 | 1010.4 |
| 20260904221321 | 84 | 299 | 0.0 | 1.0 | 0.00 | 0.58 | 0.08 | 68 | 1010.4 |
| 20260904220529 | 84 | 295 | 0.0 | 2.0 | 0.00 | 0.58 | 0.08 | 67 | 1010.4 |
| 20260904220221 | 84 | 331 | 0.0 | 2.0 | 0.00 | 0.58 | 0.08 | 67 | 1010.6 |
| 20260904215214 | 84 | 315 | 0.0 | 4.0 | 0.00 | 0.58 | 0.08 | 67 | 1010.7 |
| 20260904214647 | 84 | 295 | 0.0 | 4.0 | 0.00 | 0.58 | 0.08 | 67 | 1010.7 |
| 20260904214120 | 84 | 302 | 0.0 | 2.0 | 0.00 | 0.58 | 0.08 | 68 | 1010.7 |
| 20260904213622 | 84 | 290 | 0.0 | 2.0 | 0.00 | 0.58 | 0.08 | 67 | 1010.8 |
| 20260904213051 | 84 | 290 | 0.0 | 3.0 | 0.00 | 0.58 | 0.08 | 67 | 1011.0 |
| 20260904212523 | 84 | 295 | 0.0 | 3.0 | 0.00 | 0.58 | 0.08 | 66 | 1011.1 |
| 20260904212023 | 84 | 300 | 1.0 | 3.0 | 0.00 | 0.58 | 0.08 | 66 | 1011.0 |
| 20260904211509 | 84 | 283 | 1.0 | 5.0 | 0.00 | 0.58 | 0.08 | 66 | 1011.0 |
| 20260904210945 | 85 | 274 | 1.0 | 5.0 | 0.00 | 0.58 | 0.08 | 66 | 1011.0 |
| 20260904210711 | 85 | 296 | 1.0 | 5.0 | 0.00 | 0.58 | 0.08 | 64 | 1010.9 |
| 20260904210147 | 85 | 301 | 1.0 | 5.0 | 0.00 | 0.58 | 0.08 | 64 | 1010.8 |
| 20260904205351 | 85 | 6 | 0.0 | 4.0 | 0.00 | 0.58 | 0.08 | 64 | 1010.7 |
| 20260904205110 | 85 | 311 | 0.0 | 2.0 | 0.00 | 0.58 | 0.08 | 67 | 1010.6 |
| 20260904204553 | 85 | 330 | 0.0 | 5.0 | 0.00 | 0.58 | 0.08 | 64 | 1010.6 |
| 20260904204025 | 85 | 302 | 1.0 | 5.0 | 0.00 | 0.58 | 0.08 | 64 | 1010.7 |
| 20260904203304 | 85 | 260 | 0.0 | 4.0 | 0.00 | 0.58 | 0.08 | 64 | 1010.5 |
| 20260904202748 | 86 | 345 | 0.0 | 4.0 | 0.00 | 0.58 | 0.08 | 65 | 1010.6 |
| 20260904202509 | 86 | 316 | 0.0 | 4.0 | 0.00 | 0.58 | 0.08 | 63 | 1010.9 |
| 20260904201718 | 86 | 308 | 1.0 | 6.0 | 0.00 | 0.58 | 0.08 | 65 | 1010.9 |
| 20260904201216 | 85 | 306 | 1.0 | 6.0 | 0.00 | 0.58 | 0.08 | 63 | 1010.9 |
| 20260904200948 | 86 | 316 | 1.0 | 6.0 | 0.00 | 0.58 | 0.08 | 64 | 1010.9 |
| 20260904200202 | 85 | 300 | 1.0 | 4.0 | 0.00 | 0.58 | 0.08 | 62 | 1011.0 |
| 20260904195704 | 85 | 279 | 2.0 | 6.0 | 0.00 | 0.58 | 0.08 | 61 | 1011.0 |
| 20260904195135 | 85 | 307 | 1.0 | 10.0 | 0.00 | 0.58 | 0.08 | 61 | 1010.9 |
| 20260904194633 | 85 | 272 | 1.0 | 4.0 | 0.00 | 0.58 | 0.08 | 62 | 1011.0 |
| 20260904194130 | 85 | 295 | 1.0 | 5.0 | 0.00 | 0.58 | 0.08 | 62 | 1011.1 |
| 20260904193629 | 85 | 319 | 1.0 | 7.0 | 0.00 | 0.58 | 0.08 | 62 | 1011.1 |
| 20260904193100 | 85 | 281 | 1.0 | 7.0 | 0.00 | 0.58 | 0.08 | 62 | 1011.3 |
| 20260904192822 | 86 | 313 | 2.0 | 11.0 | 0.00 | 0.58 | 0.08 | 61 | 1011.4 |
| 20260904192516 | 86 | 307 | 1.0 | 11.0 | 0.00 | 0.58 | 0.08 | 61 | 1011.5 |
| 20260904191748 | 87 | 329 | 0.0 | 4.0 | 0.00 | 0.58 | 0.08 | 62 | 1011.5 |
| 20260904191002 | 87 | 259 | 0.0 | 3.0 | 0.00 | 0.58 | 0.08 | 62 | 1011.6 |
| 20260904190433 | 87 | 6 | 0.0 | 5.0 | 0.00 | 0.58 | 0.08 | 64 | 1011.6 |
| 20260904185929 | 87 | 304 | 1.0 | 6.0 | 0.00 | 0.58 | 0.08 | 62 | 1011.7 |
| 20260904185408 | 86 | 337 | 1.0 | 7.0 | 0.00 | 0.58 | 0.08 | 63 | 1011.7 |
| 20260904184837 | 87 | 56 | 1.0 | 7.0 | 0.00 | 0.58 | 0.08 | 62 | 1011.6 |
| 20260904184335 | 87 | 356 | 2.0 | 6.0 | 0.00 | 0.58 | 0.08 | 62 | 1011.9 |
| 20260904183811 | 87 | 301 | 1.0 | 6.0 | 0.00 | 0.58 | 0.08 | 62 | 1012.0 |
| 20260904183242 | 86 | 320 | 1.0 | 3.0 | 0.00 | 0.58 | 0.08 | 63 | 1012.1 |
| 20260904182741 | 86 | 309 | 1.0 | 4.0 | 0.00 | 0.58 | 0.08 | 64 | 1012.1 |
| 20260904182211 | 87 | 28 | 1.0 | 4.0 | 0.00 | 0.58 | 0.08 | 62 | 1012.1 |
| 20260904181709 | 87 | 256 | 1.0 | 5.0 | 0.00 | 0.58 | 0.08 | 62 | 1012.2 |
| 20260904181142 | 87 | 310 | 1.0 | 5.0 | 0.00 | 0.58 | 0.08 | 63 | 1012.1 |
| 20260904180643 | 87 | 335 | 1.0 | 4.0 | 0.00 | 0.58 | 0.08 | 61 | 1012.1 |
| 20260904180130 | 87 | 232 | 1.0 | 4.0 | 0.00 | 0.58 | 0.08 | 61 | 1011.9 |
| 20260904175631 | 87 | 281 | 1.0 | 3.0 | 0.00 | 0.58 | 0.08 | 59 | 1011.9 |
| 20260904175106 | 87 | 335 | 1.0 | 4.0 | 0.00 | 0.58 | 0.08 | 62 | 1011.9 |
| 20260904174539 | 87 | 333 | 1.0 | 4.0 | 0.00 | 0.58 | 0.08 | 61 | 1011.9 |
| 20260904174039 | 87 | 280 | 1.0 | 4.0 | 0.00 | 0.58 | 0.08 | 61 | 1011.9 |
| 20260904173510 | 87 | 290 | 1.0 | 3.0 | 0.00 | 0.58 | 0.08 | 60 | 1012.0 |
| 20260904173234 | 87 | 295 | 1.0 | 11.0 | 0.00 | 0.58 | 0.08 | 63 | 1012.0 |
| 20260904172507 | 87 | 235 | 1.0 | 11.0 | 0.00 | 0.58 | 0.08 | 59 | 1012.2 |
| 20260904172003 | 87 | 306 | 1.0 | 7.0 | 0.00 | 0.58 | 0.08 | 61 | 1012.0 |
| 20260904171507 | 88 | 1 | 1.0 | 5.0 | 0.00 | 0.58 | 0.08 | 62 | 1012.0 |
| 20260904170953 | 87 | 297 | 2.0 | 5.0 | 0.00 | 0.58 | 0.08 | 62 | 1012.0 |
| 20260904170438 | 87 | 30 | 2.0 | 6.0 | 0.00 | 0.58 | 0.08 | 66 | 1012.0 |
| 20260904170134 | 87 | 300 | 1.0 | 6.0 | 0.00 | 0.58 | 0.08 | 61 | 1012.0 |
| 20260904165403 | 87 | 285 | 1.0 | 6.0 | 0.00 | 0.58 | 0.08 | 62 | 1012.1 |
| 20260904165126 | 87 | 13 | 1.0 | 6.0 | 0.00 | 0.58 | 0.08 | 63 | 1012.0 |
| 20260904164345 | 87 | 239 | 1.0 | 5.0 | 0.00 | 0.58 | 0.08 | 64 | 1012.0 |
| 20260904163843 | 86 | 329 | 1.0 | 9.0 | 0.00 | 0.58 | 0.08 | 63 | 1012.1 |
| 20260904163345 | 86 | 254 | 1.0 | 9.0 | 0.00 | 0.58 | 0.08 | 63 | 1012.2 |
| 20260904162829 | 86 | 305 | 0.0 | 6.0 | 0.00 | 0.58 | 0.08 | 64 | 1012.3 |
| 20260904162330 | 86 | 307 | 1.0 | 7.0 | 0.00 | 0.58 | 0.08 | 65 | 1012.3 |
| 20260904161816 | 86 | 287 | 1.0 | 7.0 | 0.00 | 0.58 | 0.08 | 61 | 1012.2 |
| 20260904161536 | 86 | 319 | 1.0 | 6.0 | 0.00 | 0.58 | 0.08 | 63 | 1012.4 |
| 20260904160814 | 86 | 297 | 1.0 | 6.0 | 0.00 | 0.58 | 0.08 | 64 | 1012.4 |
| 20260904160316 | 85 | 270 | 2.0 | 8.0 | 0.00 | 0.58 | 0.08 | 64 | 1012.4 |
| 20260904155752 | 85 | 308 | 1.0 | 8.0 | 0.00 | 0.58 | 0.08 | 63 | 1012.4 |
| 20260904155448 | 86 | 285 | 1.0 | 6.0 | 0.00 | 0.58 | 0.08 | 64 | 1012.5 |
| 20260904154704 | 85 | 317 | 1.0 | 7.0 | 0.00 | 0.58 | 0.08 | 65 | 1012.4 |
| 20260904154141 | 86 | 303 | 1.0 | 7.0 | 0.00 | 0.58 | 0.08 | 65 | 1012.4 |
| 20260904154129 | 85 | 289 | 1.0 | 6.0 | 0.00 | 0.58 | 0.08 | 66 | 1012.5 |
| 20260904153120 | 86 | 102 | 1.0 | 6.0 | 0.00 | 0.58 | 0.08 | 67 | 1012.4 |
| 20260904152559 | 85 | 27 | 1.0 | 10.0 | 0.00 | 0.58 | 0.08 | 67 | 1012.5 |
| 20260904152058 | 85 | 260 | 1.0 | 10.0 | 0.00 | 0.58 | 0.08 | 67 | 1012.4 |
| 20260904151533 | 85 | 310 | 1.0 | 8.0 | 0.00 | 0.58 | 0.08 | 67 | 1012.4 |
| 20260904151046 | 84 | 322 | 2.0 | 7.0 | 0.00 | 0.58 | 0.08 | 69 | 1012.4 |
| 20260904150532 | 84 | 332 | 2.0 | 8.0 | 0.00 | 0.58 | 0.08 | 66 | 1012.4 |
| 20260904150004 | 84 | 18 | 2.0 | 8.0 | 0.00 | 0.58 | 0.08 | 67 | 1012.5 |
| 20260904145441 | 84 | 249 | 1.0 | 4.0 | 0.00 | 0.58 | 0.08 | 69 | 1012.5 |
| 20260904144938 | 84 | 328 | 1.0 | 5.0 | 0.00 | 0.58 | 0.08 | 69 | 1012.5 |
| 20260904144437 | 83 | 316 | 1.0 | 7.0 | 0.00 | 0.58 | 0.08 | 69 | 1012.5 |
| 20260904143911 | 83 | 237 | 1.0 | 7.0 | 0.00 | 0.58 | 0.08 | 69 | 1012.4 |
| 20260904143345 | 83 | 333 | 2.0 | 9.0 | 0.00 | 0.58 | 0.08 | 70 | 1012.5 |
| 20260904143045 | 82 | 267 | 2.0 | 9.0 | 0.00 | 0.58 | 0.08 | 69 | 1012.4 |
| 20260904142252 | 82 | 285 | 1.0 | 10.0 | 0.00 | 0.58 | 0.08 | 71 | 1012.4 |
| 20260904141740 | 82 | 11 | 2.0 | 7.0 | 0.00 | 0.58 | 0.08 | 70 | 1012.3 |
| 20260904141224 | 82 | 292 | 2.0 | 8.0 | 0.00 | 0.58 | 0.08 | 72 | 1012.4 |
| 20260904140719 | 82 | 280 | 1.0 | 8.0 | 0.00 | 0.58 | 0.08 | 71 | 1012.3 |
| 20260904140152 | 81 | 237 | 1.0 | 6.0 | 0.00 | 0.58 | 0.08 | 71 | 1012.2 |
| 20260904135653 | 81 | 230 | 1.0 | 6.0 | 0.00 | 0.58 | 0.08 | 72 | 1012.1 |
| 20260904135348 | 81 | 297 | 1.0 | 7.0 | 0.00 | 0.58 | 0.08 | 72 | 1012.2 |
| 20260904134819 | 81 | 303 | 1.0 | 8.0 | 0.00 | 0.58 | 0.08 | 73 | 1012.2 |
| 20260904134032 | 81 | 316 | 1.0 | 8.0 | 0.00 | 0.58 | 0.08 | 74 | 1012.2 |
| 20260904133526 | 80 | 273 | 1.0 | 7.0 | 0.00 | 0.58 | 0.08 | 75 | 1012.3 |
| 20260904133024 | 80 | 287 | 1.0 | 7.0 | 0.00 | 0.58 | 0.08 | 76 | 1012.4 |
| 20260904132521 | 80 | 320 | 1.0 | 7.0 | 0.00 | 0.58 | 0.08 | 76 | 1012.2 |
| 20260904132018 | 79 | 257 | 2.0 | 8.0 | 0.00 | 0.58 | 0.08 | 77 | 1012.1 |
| 20260904131451 | 79 | 299 | 1.0 | 8.0 | 0.00 | 0.58 | 0.08 | 77 | 1012.2 |
| 20260904130948 | 78 | 221 | 2.0 | 10.0 | 0.00 | 0.58 | 0.08 | 79 | 1012.2 |
| 20260904130433 | 78 | 65 | 3.0 | 12.0 | 0.00 | 0.58 | 0.08 | 79 | 1012.2 |
| 20260904125919 | 77 | 353 | 3.0 | 12.0 | 0.00 | 0.58 | 0.08 | 79 | 1012.3 |
| 20260904125417 | 77 | 353 | 2.0 | 9.0 | 0.00 | 0.58 | 0.08 | 80 | 1012.3 |
| 20260904124912 | 77 | 309 | 2.0 | 11.0 | 0.00 | 0.58 | 0.08 | 81 | 1012.4 |
| 20260904124632 | 76 | 321 | 3.0 | 11.0 | 0.00 | 0.58 | 0.08 | 81 | 1012.4 |
| 20260904123845 | 76 | 308 | 3.0 | 10.0 | 0.00 | 0.58 | 0.08 | 81 | 1012.5 |
| 20260904123339 | 76 | 311 | 2.0 | 10.0 | 0.00 | 0.58 | 0.08 | 82 | 1012.4 |
| 20260904122815 | 75 | 281 | 2.0 | 10.0 | 0.00 | 0.58 | 0.08 | 82 | 1012.5 |
| 20260904122246 | 75 | 330 | 2.0 | 10.0 | 0.00 | 0.58 | 0.08 | 83 | 1012.4 |
| 20260904122007 | 75 | 292 | 2.0 | 10.0 | 0.00 | 0.58 | 0.08 | 83 | 1012.3 |
| 20260904121217 | 75 | 294 | 2.0 | 10.0 | 0.00 | 0.58 | 0.08 | 83 | 1012.4 |
| 20260904120716 | 75 | 302 | 2.0 | 8.0 | 0.00 | 0.58 | 0.08 | 84 | 1012.4 |
| 20260904120147 | 74 | 295 | 1.0 | 8.0 | 0.00 | 0.58 | 0.08 | 84 | 1012.3 |
| 20260904115912 | 74 | 331 | 2.0 | 8.0 | 0.00 | 0.58 | 0.08 | 84 | 1012.3 |
| 20260904115338 | 74 | 331 | 2.0 | 8.0 | 0.00 | 0.58 | 0.08 | 84 | 1012.4 |
| 20260904114612 | 74 | 323 | 2.0 | 8.0 | 0.00 | 0.58 | 0.08 | 85 | 1012.3 |
| 20260904114124 | 73 | 303 | 2.0 | 8.0 | 0.00 | 0.58 | 0.08 | 85 | 1012.4 |
| 20260904113542 | 73 | 287 | 1.0 | 5.0 | 0.00 | 0.58 | 0.08 | 86 | 1012.5 |
| 20260904113040 | 73 | 316 | 2.0 | 6.0 | 0.00 | 0.58 | 0.08 | 86 | 1012.5 |
| 20260904112534 | 72 | 311 | 2.0 | 6.0 | 0.00 | 0.59 | 0.08 | 87 | 1012.5 |
| 20260904112255 | 72 | 312 | 2.0 | 8.0 | 0.00 | 0.59 | 0.08 | 87 | 1012.2 |
| 20260904111954 | 72 | 281 | 2.0 | 8.0 | 0.00 | 0.59 | 0.08 | 87 | 1012.0 |
| 20260904110940 | 72 | 303 | 1.0 | 7.0 | 0.00 | 0.59 | 0.08 | 87 | 1012.0 |
| 20260904110700 | 72 | 300 | 1.0 | 8.0 | 0.00 | 0.59 | 0.08 | 87 | 1011.9 |
| 20260904110138 | 72 | 299 | 1.0 | 8.0 | 0.00 | 0.59 | 0.08 | 87 | 1011.9 |
| 20260904105343 | 72 | 303 | 1.0 | 4.0 | 0.00 | 0.59 | 0.08 | 87 | 1011.9 |
| 20260904104842 | 72 | 294 | 0.0 | 4.0 | 0.00 | 0.59 | 0.08 | 87 | 1011.9 |
| 20260904104336 | 72 | 292 | 1.0 | 4.0 | 0.00 | 0.59 | 0.08 | 87 | 1011.9 |
| 20260904103835 | 72 | 324 | 1.0 | 5.0 | 0.00 | 0.59 | 0.08 | 87 | 1011.7 |
| 20260904103533 | 73 | 292 | 1.0 | 6.0 | 0.00 | 0.59 | 0.08 | 87 | 1011.4 |
| 20260904103029 | 72 | 341 | 1.0 | 6.0 | 0.00 | 0.59 | 0.08 | 88 | 1011.5 |
| 20260904102236 | 72 | 308 | 1.0 | 5.0 | 0.00 | 0.59 | 0.08 | 88 | 1011.4 |
| 20260904101736 | 73 | 307 | 0.0 | 5.0 | 0.00 | 0.59 | 0.08 | 88 | 1011.4 |
| 20260904101208 | 73 | 304 | 1.0 | 5.0 | 0.00 | 0.59 | 0.08 | 88 | 1011.2 |
| 20260904100705 | 73 | 316 | 1.0 | 5.0 | 0.00 | 0.59 | 0.08 | 88 | 1011.4 |
| 20260904100136 | 73 | 322 | 1.0 | 5.0 | 0.00 | 0.59 | 0.08 | 88 | 1011.5 |
| 20260904095635 | 73 | 310 | 1.0 | 3.0 | 0.00 | 0.59 | 0.08 | 89 | 1011.5 |
| 20260904095108 | 73 | 297 | 1.0 | 5.0 | 0.00 | 0.59 | 0.08 | 89 | 1011.5 |
| 20260904094605 | 73 | 291 | 0.0 | 4.0 | 0.00 | 0.59 | 0.08 | 89 | 1011.5 |
| 20260904094040 | 73 | 283 | 0.0 | 4.0 | 0.00 | 0.59 | 0.08 | 90 | 1011.6 |
| 20260904093543 | 73 | 296 | 0.0 | 4.0 | 0.00 | 0.59 | 0.08 | 90 | 1011.6 |
| 20260904093242 | 73 | 290 | 0.0 | 3.0 | 0.00 | 0.59 | 0.08 | 90 | 1011.7 |
| 20260904092459 | 73 | 295 | 0.0 | 2.0 | 0.00 | 0.63 | 0.08 | 90 | 1011.6 |
| 20260904091959 | 73 | 312 | 0.0 | 2.0 | 0.00 | 0.70 | 0.08 | 91 | 1011.7 |
| 20260904091433 | 73 | 309 | 0.0 | 2.0 | 0.00 | 0.70 | 0.08 | 91 | 1011.9 |
| 20260904090920 | 73 | 281 | 0.0 | 3.0 | 0.00 | 0.70 | 0.08 | 91 | 1012.1 |
| 20260904090624 | 73 | 288 | 0.0 | 3.0 | 0.00 | 0.71 | 0.08 | 92 | 1012.1 |
| 20260904085859 | 73 | 297 | 0.0 | 3.0 | 0.00 | 0.71 | 0.08 | 92 | 1012.2 |
| 20260904085340 | 74 | 312 | 0.0 | 3.0 | 0.00 | 0.80 | 0.08 | 92 | 1012.3 |
| 20260904085108 | 74 | 281 | 0.0 | 2.0 | 0.00 | 0.92 | 0.08 | 92 | 1012.0 |
| 20260904084337 | 74 | 293 | 0.0 | 2.0 | 0.00 | 0.94 | 0.08 | 93 | 1012.1 |
| 20260904083810 | 74 | 265 | 0.0 | 4.0 | 0.00 | 0.94 | 0.08 | 93 | 1012.2 |
| 20260904083310 | 74 | 298 | 1.0 | 4.0 | 0.00 | 0.94 | 0.08 | 93 | 1012.2 |
| 20260904082754 | 74 | 282 | 1.0 | 4.0 | 0.00 | 0.94 | 0.08 | 94 | 1012.2 |
| 20260904082256 | 74 | 289 | 1.0 | 4.0 | 0.00 | 0.94 | 0.08 | 94 | 1012.1 |
| 20260904081755 | 74 | 290 | 1.0 | 4.0 | 0.00 | 0.94 | 0.08 | 94 | 1012.1 |
| 20260904081234 | 74 | 287 | 1.0 | 4.0 | 0.00 | 0.94 | 0.08 | 94 | 1012.1 |
| 20260904080732 | 74 | 310 | 1.0 | 4.0 | 0.00 | 0.94 | 0.08 | 94 | 1012.2 |
| 20260904080232 | 74 | 302 | 1.0 | 4.0 | 0.00 | 0.94 | 0.08 | 94 | 1012.2 |
| 20260904075714 | 74 | 266 | 1.0 | 4.0 | 0.00 | 0.94 | 0.08 | 94 | 1012.2 |
| 20260904075158 | 74 | 311 | 1.0 | 3.0 | 0.00 | 0.94 | 0.08 | 94 | 1012.2 |
| 20260904074927 | 74 | 291 | 0.0 | 2.0 | 0.00 | 0.94 | 0.08 | 95 | 1012.1 |
| 20260904074135 | 74 | 321 | 0.0 | 2.0 | 0.00 | 0.94 | 0.08 | 95 | 1012.3 |
| 20260904073842 | 74 | 322 | 0.0 | 1.0 | 0.00 | 0.94 | 0.08 | 95 | 1012.3 |
| 20260904073056 | 74 | 295 | 0.0 | 1.0 | 0.00 | 0.94 | 0.08 | 95 | 1012.2 |
| 20260904072823 | 74 | 304 | 0.0 | 0.0 | 0.00 | 0.94 | 0.08 | 95 | 1012.4 |
| 20260904072054 | 73 | 28 | 0.0 | 0.0 | 0.00 | 0.94 | 0.08 | 94 | 1012.2 |
| 20260904071527 | 73 | 28 | 0.0 | 0.0 | 0.00 | 0.94 | 0.08 | 94 | 1012.2 |
| 20260904071002 | 73 | 28 | 0.0 | 0.0 | 0.00 | 0.94 | 0.08 | 94 | 1011.9 |
| 20260904070438 | 73 | 28 | 0.0 | 0.0 | 0.00 | 0.94 | 0.08 | 94 | 1011.8 |
| 20260904065934 | 73 | 27 | 0.0 | 0.0 | 0.00 | 0.94 | 0.08 | 94 | 1011.6 |
| 20260904065430 | 73 | 28 | 0.0 | 0.0 | 0.00 | 0.94 | 0.08 | 94 | 1011.7 |
| 20260904064905 | 73 | 28 | 0.0 | 0.0 | 0.00 | 0.94 | 0.08 | 94 | 1011.7 |
| 20260904064608 | 73 | 27 | 0.0 | 0.0 | 0.00 | 0.94 | 0.08 | 94 | 1011.6 |
| 20260904063836 | 73 | 28 | 0.0 | 0.0 | 0.00 | 0.94 | 0.08 | 94 | 1011.6 |
| 20260904063332 | 73 | 30 | 0.0 | 0.0 | 0.00 | 0.94 | 0.08 | 94 | 1011.4 |
| 20260904062830 | 73 | 30 | 0.0 | 0.0 | 0.00 | 0.94 | 0.08 | 94 | 1011.4 |
| 20260904062327 | 72 | 30 | 0.0 | 0.0 | 0.00 | 0.95 | 0.08 | 94 | 1011.5 |
| 20260904062029 | 72 | 30 | 0.0 | 0.0 | 0.00 | 0.96 | 0.08 | 94 | 1011.5 |
| 20260904061300 | 72 | 30 | 0.0 | 0.0 | 0.00 | 1.01 | 0.08 | 94 | 1011.4 |
| 20260904060754 | 72 | 30 | 0.0 | 0.0 | 0.00 | 1.03 | 0.08 | 94 | 1011.6 |
| 20260904060251 | 72 | 30 | 0.0 | 0.0 | 0.00 | 1.12 | 0.08 | 93 | 1011.6 |
| 20260904060016 | 72 | 358 | 0.0 | 0.0 | 0.00 | 1.12 | 0.08 | 94 | 1011.5 |
| 20260904055223 | 72 | 358 | 0.0 | 0.0 | 0.00 | 1.13 | 0.08 | 94 | 1011.4 |
| 20260904054946 | 72 | 358 | 0.0 | 0.0 | 0.00 | 1.15 | 0.08 | 94 | 1011.5 |
| 20260904054151 | 72 | 358 | 0.0 | 0.0 | 0.00 | 1.44 | 0.08 | 94 | 1011.8 |
| 20260904053647 | 72 | 358 | 0.0 | 0.0 | 0.00 | 1.54 | 0.08 | 93 | 1012.2 |
| 20260904053122 | 72 | 358 | 0.0 | 0.0 | 0.00 | 1.54 | 0.08 | 93 | 1012.4 |
| 20260904052557 | 72 | 358 | 0.0 | 0.0 | 0.00 | 1.54 | 0.08 | 93 | 1012.2 |
| 20260904052049 | 72 | 358 | 0.0 | 0.0 | 0.00 | 1.54 | 0.08 | 93 | 1012.3 |
| 20260904051548 | 72 | 358 | 0.0 | 0.0 | 0.00 | 1.54 | 0.08 | 93 | 1012.2 |
| 20260904051021 | 72 | 358 | 0.0 | 0.0 | 0.01 | 1.54 | 0.08 | 93 | 1012.2 |
| 20260904050454 | 72 | 358 | 0.0 | 0.0 | 0.02 | 1.54 | 0.08 | 93 | 1012.2 |
| 20260904045950 | 72 | 358 | 0.0 | 0.0 | 0.08 | 1.54 | 0.08 | 93 | 1012.3 |
| 20260904045426 | 72 | 4 | 0.0 | 0.0 | 0.31 | 1.54 | 0.08 | 92 | 1012.2 |
| 20260904044922 | 72 | 4 | 0.0 | 0.0 | 0.37 | 1.54 | 0.08 | 92 | 1012.2 |
| 20260904044419 | 72 | 4 | 0.0 | 0.0 | 0.39 | 1.54 | 0.08 | 92 | 1012.0 |
| 20260904044140 | 72 | 4 | 0.0 | 0.0 | 0.51 | 1.54 | 0.08 | 92 | 1012.0 |
| 20260904043412 | 72 | 4 | 0.0 | 0.0 | 0.58 | 1.54 | 0.08 | 92 | 1012.0 |
| 20260904042848 | 72 | 4 | 0.0 | 0.0 | 0.58 | 1.54 | 0.08 | 91 | 1012.0 |
| 20260904042343 | 73 | 4 | 0.0 | 0.0 | 0.58 | 1.54 | 0.08 | 91 | 1012.0 |
| 20260904041841 | 73 | 353 | 0.0 | 2.0 | 0.58 | 1.54 | 0.08 | 90 | 1012.1 |
| 20260904041327 | 73 | 305 | 0.0 | 11.0 | 0.58 | 1.54 | 0.08 | 89 | 1012.4 |
| 20260904040824 | 73 | 301 | 1.0 | 11.0 | 0.56 | 1.52 | 0.06 | 88 | 1012.6 |
| 20260904040309 | 74 | 322 | 4.0 | 15.0 | 0.56 | 1.52 | 0.06 | 88 | 1012.9 |
| 20260904035807 | 75 | 323 | 3.0 | 15.0 | 0.39 | 1.35 | 1.36 | 86 | 1013.5 |
| 20260904035243 | 77 | 6 | 1.0 | 4.0 | 0.22 | 1.18 | 1.19 | 89 | 1014.0 |
| 20260904034715 | 77 | 203 | 1.0 | 5.0 | 0.21 | 1.17 | 1.17 | 88 | 1013.2 |
| 20260904034213 | 78 | 340 | 1.0 | 5.0 | 0.16 | 1.12 | 1.13 | 86 | 1013.5 |
| 20260904033645 | 79 | 287 | 0.0 | 3.0 | 0.01 | 0.97 | 0.98 | 83 | 1013.7 |
| 20260904033144 | 79 | 304 | 0.0 | 0.0 | 0.00 | 0.96 | 0.96 | 83 | 1013.1 |
| 20260904032615 | 79 | 304 | 0.0 | 0.0 | 0.00 | 0.96 | 0.96 | 83 | 1013.1 |
| 20260904032110 | 79 | 304 | 0.0 | 0.0 | 0.00 | 0.96 | 0.96 | 83 | 1013.2 |
| 20260904031824 | 79 | 304 | 0.0 | 0.0 | 0.00 | 0.96 | 0.96 | 83 | 1013.3 |
| 20260904031102 | 79 | 304 | 0.0 | 0.0 | 0.00 | 0.96 | 0.96 | 83 | 1013.4 |
| 20260904030756 | 79 | 304 | 0.0 | 0.0 | 0.00 | 0.96 | 0.96 | 83 | 1013.5 |
| 20260904030029 | 79 | 304 | 0.0 | 0.0 | 0.00 | 0.96 | 0.96 | 83 | 1013.5 |
| 20260904025528 | 79 | 304 | 0.0 | 0.0 | 0.00 | 0.96 | 0.96 | 83 | 1013.5 |
| 20260904025248 | 78 | 304 | 0.0 | 0.0 | 0.00 | 0.96 | 0.96 | 83 | 1013.5 |
| 20260904024457 | 78 | 304 | 0.0 | 0.0 | 0.00 | 0.96 | 0.96 | 84 | 1013.6 |
| 20260904023955 | 78 | 304 | 0.0 | 0.0 | 0.00 | 0.96 | 0.96 | 84 | 1013.6 |
| 20260904023427 | 78 | 236 | 0.0 | 0.0 | 0.00 | 0.96 | 0.96 | 85 | 1013.5 |
| 20260904023147 | 78 | 236 | 0.0 | 0.0 | 0.00 | 0.96 | 0.96 | 84 | 1013.5 |
| 20260904022359 | 78 | 236 | 0.0 | 0.0 | 0.00 | 0.96 | 0.96 | 84 | 1013.3 |
| 20260904021832 | 79 | 236 | 0.0 | 0.0 | 0.00 | 0.96 | 0.96 | 83 | 1013.2 |
| 20260904021526 | 79 | 236 | 0.0 | 0.0 | 0.00 | 0.96 | 0.96 | 83 | 1013.2 |
| 20260904020803 | 79 | 236 | 0.0 | 0.0 | 0.00 | 0.96 | 0.96 | 82 | 1013.4 |
| 20260904020236 | 79 | 237 | 0.0 | 0.0 | 0.00 | 0.96 | 0.96 | 82 | 1013.2 |
| 20260904015734 | 79 | 232 | 0.0 | 0.0 | 0.00 | 0.96 | 0.96 | 81 | 1013.2 |
| 20260904015212 | 80 | 232 | 0.0 | 0.0 | 0.00 | 0.96 | 0.96 | 81 | 1013.1 |
| 20260904014711 | 80 | 232 | 0.0 | 0.0 | 0.00 | 0.96 | 0.96 | 80 | 1013.4 |
| 20260904014155 | 80 | 232 | 0.0 | 0.0 | 0.00 | 0.96 | 0.96 | 80 | 1013.4 |
| 20260904013655 | 80 | 232 | 0.0 | 0.0 | 0.00 | 0.96 | 0.96 | 79 | 1013.5 |
| 20260904013158 | 80 | 288 | 0.0 | 0.0 | 0.00 | 0.96 | 0.96 | 79 | 1013.5 |
| 20260904012654 | 80 | 288 | 0.0 | 2.0 | 0.00 | 0.96 | 0.96 | 78 | 1013.6 |
| 20260904012156 | 81 | 288 | 0.0 | 2.0 | 0.00 | 0.96 | 0.96 | 78 | 1013.8 |
| 20260904011853 | 81 | 286 | 0.0 | 2.0 | 0.00 | 0.96 | 0.96 | 78 | 1014.0 |
| 20260904011129 | 80 | 288 | 0.0 | 2.0 | 0.00 | 0.96 | 0.96 | 79 | 1014.0 |
| 20260904010610 | 80 | 299 | 0.0 | 2.0 | 0.00 | 0.96 | 0.96 | 79 | 1014.2 |
| 20260904010110 | 80 | 288 | 0.0 | 2.0 | 0.00 | 0.96 | 0.96 | 79 | 1014.2 |
| 20260904010050 | 80 | 295 | 0.0 | 3.0 | 0.00 | 0.96 | 0.96 | 80 | 1014.3 |
| 20260904005100 | 80 | 260 | 0.0 | 3.0 | 0.00 | 0.96 | 0.96 | 80 | 1014.1 |
| 20260904004600 | 80 | 329 | 0.0 | 1.0 | 0.00 | 0.96 | 0.96 | 81 | 1014.1 |
| 20260904004101 | 80 | 282 | 0.0 | 1.0 | 0.00 | 0.96 | 0.96 | 81 | 1014.1 |
| 20260904003534 | 80 | 265 | 0.0 | 0.0 | 0.00 | 0.96 | 0.96 | 82 | 1014.1 |
| 20260904003018 | 80 | 264 | 0.0 | 0.0 | 0.00 | 0.96 | 0.96 | 82 | 1014.1 |
| 20260904002450 | 80 | 255 | 0.0 | 0.0 | 0.00 | 0.96 | 0.96 | 83 | 1014.0 |
| 20260904001930 | 79 | 255 | 0.0 | 0.0 | 0.00 | 0.96 | 0.96 | 83 | 1014.0 |
| 20260904001638 | 80 | 255 | 0.0 | 0.0 | 0.00 | 0.96 | 0.96 | 82 | 1013.8 |
| 20260904001121 | 80 | 255 | 0.0 | 0.0 | 0.00 | 0.96 | 0.96 | 82 | 1013.6 |
| 20260904000333 | 80 | 255 | 0.0 | 0.0 | 0.00 | 0.96 | 0.96 | 81 | 1013.5 |
| 20260904000058 | 80 | 255 | 0.0 | 0.0 | 0.00 | 0.96 | 0.96 | 81 | 1013.5 |
| 20260903235330 | 81 | 255 | 0.0 | 1.0 | 0.00 | 0.96 | 0.96 | 80 | 1013.4 |
| 20260903234843 | 81 | 255 | 0.0 | 1.0 | 0.00 | 0.96 | 0.96 | 80 | 1013.6 |